Voltar ao catálogo

DELTA 1 DEB

AtivoSSO
NORAD 42639·DEBRIS·🇺🇸 United States

Lançado Jun 12, 1975 de Vandenberg Space Force Base

Loading…

Próximas Passagens (próximas 24 horas)

TLE

EnvelhecendoSource: Space-Track

Época: Sep 9, 2026, 05:43 UTC

1 42639U 75052LY  26252.23820381  .00000026  00000-0  13880-3 0  9998
2 42639  99.7002  68.4157 0070822 185.8600 350.8089 13.31704432621999

Acompanhe DELTA 1 DEB em tempo real com AllMySat

Download on the App Store